Simultaneous Nadir Overpasses (SNOs) Predictions

Prediction of SNOs between GOES-15 and METOP-C Satellite Orbit:

Table of predicted SNOs for the next 14.0 days since TLE Epoch: 1/23/2021
Index Date Time (GOES-15) GOES-15 Lat,Lon METOP-C Lat,Lon Distance(km) Time Diff (sec)
1 01/24/2021 06:03:57 -0.07,-127.81 -0.06,-127.67 15.38 80
2 01/26/2021 18:02:09 0.06,-127.75 -0.03,-127.23 58.92 80
3 01/28/2021 06:18:31 -0.02,-127.67 -0.94,-131.84 475.55 80
4 01/29/2021 06:00:32 -0.05,-127.63 0.16,-126.84 90.43 80
5 01/30/2021 18:16:43 0.01,-127.60 0.85,-131.40 432.63 80
6 01/31/2021 17:58:44 0.04,-127.56 -0.24,-126.40 132.86 80
7 02/02/2021 06:15:05 0.00,-127.47 -0.78,-131.00 402.55 80
8 02/03/2021 05:57:06 -0.02,-127.43 0.32,-126.00 162.90 80
9 02/04/2021 18:13:17 -0.02,-127.40 0.70,-130.56 360.94 80
10 02/05/2021 17:55:18 0.00,-127.35 -0.40,-125.56 203.77 80
